San Sebastian, Spain

2:18 AM CEST on July 28, 2017 (GMT +0200)
San Sebastian

Weather History for LESO - October, 2012

Change the Weather History Date:

Monday, October 1, 2012

  Actual Average Record
Temperature  
Mean Temperature 58 °F -  
Max Temperature 66 °F 68 °F 87 °F (2001)
Min Temperature 50 °F 55 °F 50 °F (2012)
Degree Days  
Heating Degree Days 7    
Growing Degree Days 8 (Base 50)    
Moisture  
Dew Point 48 °F    
Average Humidity 68    
Maximum Humidity 87    
Minimum Humidity 49    
Precipitation  
Precipitation 0.00 in - - ()
Sea Level Pressure  
Sea Level Pressure 30.15 in    
Wind  
Wind Speed 3 mph ()    
Max Wind Speed 7 mph    
Max Gust Speed -    
Visibility 6.2 miles    
Events      
Averages and records for this station are not official NWS values.
T = Trace of Precipitation, MM = Missing Value Source: Averaged Metar Reports

Daily Weather History Graph

Daily Weather History Graph

Search for Another Location

Airport or City:

Trip Planner

Search our weather history database for the weather conditions in past years. The results will help you decide how hot, cold, wet, or windy it might be!

Date:

Astronomy

Oct. 01, 2012 Rise Set
Actual Time 8:04 AM CEST 7:47 PM CEST
Civil Twilight 7:36 AM CEST 8:16 PM CEST
Nautical Twilight 7:03 AM CEST 8:49 PM CEST
Astronomical Twilight 6:29 AM CEST 9:22 PM CEST
Moon 8:12 PM CEST (10/1) 9:23 AM CEST (10/1)
Length of Visible Light 12h 39m
Length of Day
11h 42m
Full, 98% of the Moon is Illuminated
Oct 1
Full
Oct 8
Last Quarter
Oct 15
New
Oct 22
First Quarter
Oct 29
Full

Hourly Weather History & Observations

Time (CEST) Temp. Dew Point Humidity Pressure Visibility Wind Dir Wind Speed Gust Speed Precip Events Conditions
5:30 AM 51.8 °F 46.4 °F 82% 30.15 in 6.2 mi South 4.6 mph - N/A   Scattered Clouds
6:00 AM 51.8 °F 46.4 °F 82% 30.12 in 6.2 mi South 5.8 mph - N/A   Mostly Cloudy
6:30 AM 50.0 °F 46.4 °F 87% 30.15 in 6.2 mi SSE 3.5 mph - N/A   Scattered Clouds
7:00 AM 50.0 °F 46.4 °F 87% 30.15 in 6.2 mi South 3.5 mph - N/A   Scattered Clouds
7:30 AM 51.8 °F 46.4 °F 82% 30.12 in 6.2 mi South 6.9 mph - N/A   Scattered Clouds
8:00 AM 50.0 °F 46.4 °F 87% 30.15 in 6.2 mi Variable 2.3 mph - N/A   Mostly Cloudy
8:30 AM 50.0 °F 46.4 °F 87% 30.15 in 6.2 mi SSE 4.6 mph - N/A   Mostly Cloudy
9:00 AM 51.8 °F 46.4 °F 82% 30.15 in 6.2 mi Variable 2.3 mph - N/A   Mostly Cloudy
9:30 AM 53.6 °F 46.4 °F 77% 30.15 in 6.2 mi Variable 2.3 mph - N/A   Mostly Cloudy
10:00 AM 55.4 °F 48.2 °F 77% 30.15 in 6.2 mi South 3.5 mph - N/A   Mostly Cloudy
10:30 AM 57.2 °F 48.2 °F 72% 30.15 in 6.2 mi Variable 2.3 mph - N/A   Scattered Clouds
11:00 AM 59.0 °F 50.0 °F 72% 30.18 in 6.2 mi Variable 1.2 mph - N/A   Partly Cloudy
11:30 AM 62.6 °F 50.0 °F 63% 30.18 in 6.2 mi Variable 1.2 mph - N/A   Partly Cloudy
12:00 PM 64.4 °F 46.4 °F 52% 30.18 in 6.2 mi Variable 1.2 mph - N/A   Partly Cloudy
1:00 PM 66.2 °F 46.4 °F 49% 30.18 in 6.2 mi Variable 1.2 mph - N/A   Partly Cloudy
1:30 PM 66.2 °F 48.2 °F 52% 30.15 in 6.2 mi Variable 2.3 mph - N/A   Partly Cloudy
2:00 PM 66.2 °F 48.2 °F 52% 30.15 in 6.2 mi North 3.5 mph - N/A   Partly Cloudy
2:30 PM 66.2 °F 48.2 °F 52% 30.15 in - North 4.6 mph - N/A   Clear
3:00 PM 66.2 °F 48.2 °F 52% 30.15 in - North 4.6 mph - N/A   Clear
3:30 PM 66.2 °F 50.0 °F 56% 30.15 in - North 4.6 mph - N/A   Clear
4:00 PM 66.2 °F 50.0 °F 56% 30.15 in - North 3.5 mph - N/A   Clear
4:30 PM 64.4 °F 50.0 °F 59% 30.15 in - NNE 5.8 mph - N/A   Clear
5:00 PM 64.4 °F 48.2 °F 56% 30.15 in - NNE 4.6 mph - N/A   Clear
5:30 PM 64.4 °F 48.2 °F 56% 30.15 in - NNE 4.6 mph - N/A   Clear
6:00 PM 64.4 °F 50.0 °F 59% 30.15 in - NNE 3.5 mph - N/A   Clear
6:30 PM 64.4 °F 50.0 °F 59% 30.15 in - Variable 2.3 mph - N/A   Clear
7:00 PM 64.4 °F 50.0 °F 59% 30.15 in - Variable 2.3 mph - N/A   Clear
7:30 PM 62.6 °F 50.0 °F 63% 30.15 in - Variable 2.3 mph - N/A   Clear
8:00 PM 62.6 °F 50.0 °F 63% 30.15 in - Variable 1.2 mph - N/A   Clear
8:30 PM 59.0 °F 51.8 °F 77% 30.18 in - Variable 1.2 mph - N/A   Clear
9:00 PM 57.2 °F 51.8 °F 82% 30.18 in - SSW 3.5 mph - N/A   Clear
9:30 PM 57.2 °F 51.8 °F 82% 30.18 in - Variable 2.3 mph - N/A   Clear